Flag for U.S.A. Weather past 2 weeks in Greenville, South Carolina, U.S.A.

Now
39 °F

Sunny.


Feels Like: 31 °F
Forecast: 33 / 52 °F
Wind: 15 mph from North

Location: Greenville Downtown Airport

Current Time: Mar 28, 2015 at 10:54:19 AM

Latest Report: Mar 28, 2015 at 9:53 AM


Visibility: 10 mi

Pressure: 30.08 "Hg

Humidity: 39%

Dew point: 16 °F

Location of GreenvilleLocation

Historic Weather in Greenville — Graph

°F

Greenville temperature yesterday

Maximum temperature yesterday: 63 °F (at 12:53 AM)
Minimum temperature yesterday: 45 °F (at 11:53 PM)
Average temperature yesterday: 52 °F

Past Weeks' High & Low Weather Summary

 TemperatureHumidityPressure
High85 °F (Mar 17, 4:53 PM)97% (Mar 26, 9:00 AM)30.48 "Hg (Mar 26, 9:00 AM)
Low33 °F (Mar 28, 7:53 AM)10% (Mar 16, 4:53 PM)29.65 "Hg (Mar 27, 4:53 AM)
Average58 °F63%30.06 "Hg
* Reported Mar 13 9:53 AM — Mar 28 9:53 AM, Greenville, Weather by CustomWeather, © 2015

Note: Actual official high and low records may vary slightly from our data, if they occured in-between our weather recording intervals... More about our weather records

Advertising

Greenville weather history for previous 24 hours

 ConditionsComfort  
Time TempWeatherWind HumidityBarometerVisibility
9:53 AM
Sat, Mar 28
39 °FSunny.15 mph39%30.08 "Hg10 mi
8:53 AM37 °FSunny.10 mph48%30.06 "Hg10 mi
7:53 AM33 °FClear.6 mph66%30.04 "Hg10 mi
6:53 AM34 °FClear.No wind67%30.01 "Hg10 mi
5:53 AM35 °FClear.6 mph64%29.98 "Hg10 mi
4:53 AM36 °FClear.5 mph64%29.96 "Hg10 mi
3:53 AM38 °FClear.6 mph60%29.95 "Hg10 mi
2:53 AM37 °FClear.7 mph67%29.94 "Hg10 mi
1:53 AM41 °FClear.No wind60%29.94 "Hg10 mi
12:53 AM42 °FPassing clouds.6 mph57%29.93 "Hg10 mi
11:53 PM
Fri, Mar 27
45 °FOvercast.8 mph48%29.91 "Hg10 mi
10:53 PM46 °FMostly cloudy.5 mph54%29.89 "Hg10 mi
9:53 PM47 °FMostly cloudy.8 mph50%29.86 "Hg10 mi
8:53 PM48 °FOvercast.5 mph50%29.84 "Hg10 mi
7:53 PM47 °FMore clouds than sun.7 mph71%29.83 "Hg10 mi
6:53 PM49 °FOvercast.6 mph61%29.79 "Hg10 mi
5:53 PM48 °FLight rain. Mostly cloudy.8 mph61%29.78 "Hg10 mi
4:53 PM47 °FLight rain. Overcast.7 mph80%29.78 "Hg6 mi
3:53 PM49 °FOvercast.10 mph61%29.77 "Hg10 mi
2:53 PM53 °FOvercast.13 mph52%29.75 "Hg10 mi
1:53 PM54 °FOvercast.16 mph53%29.75 "Hg10 mi
12:53 PM52 °FMostly cloudy.10 mph64%29.75 "Hg10 mi
11:53 AM51 °FOvercast.9 mph66%29.75 "Hg10 mi
11:03 AM50 °FMostly cloudy.9 mph77%29.75 "Hg10 mi
10:53 AM50 °FMore clouds than sun.9 mph77%29.73 "Hg10 mi
Weather by CustomWeather, © 2015

See weather overviewHow to use our weather pages